This demonstration page uses our WeatherBlox Daily Observations layout. Learn more.

Left ArrowRight Arrow

Hourly Observations for March 4, 2016

Temp ( °F °C ) Dew Point ( °F °C ) Humidity (%) Winds ( mph kmh ) Pressure ( in mb ) Visibility ( mi km ) Precip ( " mm )
12:05 am 00:05 Cloudy 35 1.7 33 0.6 93 93 S 3 6 30.06 1018 10 16 N/A
12:53 am 00:53 Cloudy 36 2.2 34 1.1 93 93 SSW 3 6 30.05 1018 8 13 N/A
1:53 am 01:53 Cloudy with Light Rain 35 1.7 33 0.6 93 93 WSW 6 9 30.06 1018 5 8 N/A
2:20 am 02:20 Cloudy with Light Rain 35 1.7 34 1.1 96 96 WSW 3 6 30.06 1018 4 6 0.01 0.25
2:53 am 02:53 Cloudy with Light Rain 35 1.7 34 1.1 96 96 WSW 5 7 30.05 1018 6 10 0.01 0.25
3:18 am 03:18 Cloudy with Light Rain 35 1.7 34 1.1 96 96 WSW 3 6 30.06 1018 5 8 N/A
3:42 am 03:42 Cloudy with Light Snow 35 1.7 33 0.6 93 93 W 5 7 30.06 1018 5 8 N/A
3:53 am 03:53 Cloudy with Mist and Fog 35 1.7 33 0.6 93 93 W 6 9 30.05 1018 6 10 N/A
4:35 am 04:35 Cloudy with Light Rain 35 1.7 34 1.1 96 96 WSW 5 7 30.06 1018 6 10 0.01 0.25
4:53 am 04:53 Cloudy with Light Rain 35 1.7 34 1.1 96 96 W 3 6 30.06 1018 6 10 0.01 0.25
5:50 am 05:50 Cloudy 36 2 34 1 93 93 N N/A 30.09 1019 7 11 N/A
5:53 am 05:53 Cloudy with Mist and Fog 35 1.7 34 1.1 96 96 N N/A 30.08 1019 6 10 N/A
6:01 am 06:01 Cloudy with Mist and Fog 35 1.7 34 1.1 96 96 W 3 6 30.09 1019 6 10 N/A
6:40 am 06:40 Cloudy 36 2.2 34 1.1 93 93 NW 7 11 30.09 1019 10 16 N/A
6:53 am 06:53 Cloudy 36 2.2 33 0.6 89 89 N 12 19 30.10 1019 9 14 N/A
7:53 am 07:53 Cloudy with Mist and Fog 34 1.1 31 -0.6 89 89 N 10 17 30.13 1020 3 5 N/A
8:53 am 08:53 Cloudy with Mist and Fog 34 1.1 30 -1.1 85 85 N 8 13 30.16 1022 4 6 N/A
9:01 am 09:01 Cloudy with Mist and Fog 33 0.6 30 -1.1 89 89 N 10 17 30.18 1022 5 8 N/A
9:53 am 09:53 Cloudy with Mist and Fog 34 1.1 30 -1.1 85 85 N 8 13 30.19 1022 5 8 N/A
10:53 am 10:53 Cloudy with Haze 34 1.1 29 -1.7 82 82 N 8 13 30.21 1023 6 10 N/A
11:30 am 11:30 Cloudy 35 1.7 28 -2.2 76 76 N 7 11 30.21 1023 10 16 N/A
11:53 am 11:53 Cloudy 35 1.7 28 -2.2 76 76 N 8 13 30.21 1023 10 16 N/A
12:53 pm 12:53 Cloudy 36 2.2 27 -2.8 70 70 NW 6 9 30.21 1023 10 16 N/A
1:53 pm 13:53 Cloudy 36 2.2 28 -2.2 73 73 VRB 3 6 30.20 1023 10 16 N/A
2:53 pm 14:53 Cloudy 37 2.8 28 -2.2 70 70 W 6 9 30.21 1023 10 16 N/A
3:53 pm 15:53 Cloudy 37 2.8 27 -2.8 67 67 SSW 3 6 30.21 1023 10 16 N/A
4:53 pm 16:53 Cloudy 37 2.8 26 -3.3 65 65 VRB 5 7 30.21 1023 10 16 N/A
5:30 pm 17:30 Cloudy 37 2.8 24 -4.4 59 59 W 3 6 30.21 1023 10 16 N/A
5:53 pm 17:53 Cloudy 37 2.8 25 -3.9 62 62 W 5 7 30.22 1023 10 16 N/A
6:53 pm 18:53 Cloudy 36 2.2 26 -3.3 67 67 W 5 7 30.22 1023 10 16 N/A
7:53 pm 19:53 Cloudy 36 2.2 25 -3.9 64 64 N N/A 30.20 1023 10 16 N/A
8:53 pm 20:53 Cloudy 33 0.6 28 -2.2 82 82 N N/A 30.19 1023 10 16 N/A
9:53 pm 21:53 Cloudy 32 undefined 27 -2.8 82 82 N N/A 30.21 1023 10 16 N/A
10:00 pm 22:00 Mostly Cloudy 31 -0.6 27 -2.8 85 85 N N/A 30.21 1023 10 16 N/A
10:12 pm 22:12 Partly Cloudy 31 -0.6 28 -2.2 89 89 N N/A 30.21 1023 10 16 N/A
10:53 pm 22:53 Clear 31 -0.6 28 -2.2 89 89 N N/A 30.20 1023 9 14 N/A
11:53 pm 23:53 Clear 29 -1.7 26 -3.3 89 89 N N/A 30.20 1023 8 13 N/A

Powered by AerisWeather